sat.trackr.live / text

‹ back to catalog

STARLINK-37994

NORAD 69680 · 2026-145D

PAYLOAD ACTIVE UNKNOWN

§ Identity

Operator
Country
US
Launch date
2026-06-25
Launch site
AFWTR
Launch vehicle
Mass (kg)
RCS (m²)

Purposes: comms

External: N2YO · Heavens-Above · Gunter

§ Orbital elements

Epoch: 2026-09-20T00:05:10.933728Z

Period
93.91 min
Inclination
97.2866°
Eccentricity
0.0001601
Mean motion
15.33443756 rev/d
Perigee alt
464.5 km
Apogee alt
466.6 km
Semi-major
6,843.7 km
B*
3.5149e-4
RAAN
109.6216°
Arg perigee
95.8442°
Mean anomaly
264.2984°
Rev number
1,346

§ Raw data

STARLINK-379941 69680U 26145D   26263.00359877  .00011289  00000+0  35149-3 0  99902 69680  97.2866 109.6216 0001601  95.8442 264.2984 15.33443756 13464

JSON: /api/v1/satellites/69680 · /tle

For live sub-satellite position, see the globe view (requires WebGL).

§ Visibility from observer

Set your observer location to see the next 7 days of passes ≥ 10°. The values pass through the URL so the page stays shareable.

No JS? Fill the form by hand. The geolocation button needs JavaScript.